Regional Weather Roundup
Issued by NWS Northern Indiana

Home | Current Version | Previous Version | Graphics & Text | Print | Product List | Glossary On
Versions: 1 2 3 4 5 6 7 8 9 10 11 12 13 14 15 16 17 18 19 20 21 22 23 24 25 26 27 28 29 30 31 32 33 34 35 36 37 38 39 40 41 42 43 44 45 46 47 48 49 50
000
ASUS43 KIWX 280700
RWRIWX

KIWX WEATHER ROUNDUP
NATIONAL WEATHER SERVICE NORTHERN INDIANA
300 AM EDT MON JUL 28 2014

NOTE: "FAIR" INDICATES FEW OR NO CLOUDS BELOW 12,000 FEET WITH NO
SIGNIFICANT WEATHER AND/OR OBSTRUCTIONS TO VISIBILITY.

* THESE STATIONS ARE NOT UNDER NWS QUALITY CONTROL. THEY ALSO MAY NOT
  REPORT WEATHER SUCH AS PRECIPITATION OR FOG.

INZ001>027-280800-
NORTHERN INDIANA

CITY           SKY/WX    TMP DP  RH WIND       PRES   REMARKS
GARY*          CLOUDY    66  54  66 N21G31    29.92R
VALPARAISO     CLOUDY    63  55  75 N14G22    29.89R
KNOX*          CLOUDY    62  56  80 N14G20    29.85F
SOUTH BEND     CLOUDY    64  58  80 N16       29.85R
GOSHEN         CLOUDY    64  58  80 NW15      29.82R
MONTICELLO*    CLOUDY    64  59  85 N14G22    29.86S
WARSAW*        CLOUDY    63  57  82 NW10G17   29.82S
ANGOLA*        CLOUDY    63  54  72 NW9       29.80R
FORT WAYNE     CLOUDY    64  58  80 NW8       29.79F
PERU/GRISSOM   CLOUDY    65  63  95 NW14      29.83S

$$
INZ028>050-280800-
CENTRAL INDIANA

CITY           SKY/WX    TMP DP  RH WIND       PRES   REMARKS
LAFAYETTE      CLOUDY    64  59  83 NW10      29.87R
KOKOMO*        MOCLDY    63  57  82 NW12      29.83F
MUNCIE*        MOCLDY    63  57  81 NW13      29.82R
INDIANAPOLIS   CLEAR     65  58  78 NW13      29.85R

$$
MIZ043>046-050>051-056>058-064>065-071>073-077>080-280800-
SOUTHWEST LOWER MICHIGAN

CITY           SKY/WX    TMP DP  RH WIND       PRES   REMARKS
BATTLE CREEK   PTCLDY    62  59  90 NW8       29.81S
BENTON HARBOR  CLOUDY    61  57  87 NW8G17    29.85R
COLDWATER*     CLOUDY    63  60  91 NW8       29.80R
HILLSDALE*     MOCLDY    62  62  99 NW10      29.78S
HOLLAND        PTCLDY    64  58  80 VRB7      29.85S
GRAND RAPIDS   LGT RAIN  65  62  90 N10       29.83R
KALAMAZOO      CLOUDY    63  59  87 N12       29.82R
STURGIS*       CLOUDY    63  59  88 NW10      29.81R
THREE RIVERS*  CLOUDY    64  61  90 NW7       29.82S

$$
OHZ001>008-015>018-024>025-280800-
NORTHWEST OHIO

CITY           SKY/WX    TMP DP  RH WIND       PRES   REMARKS
DEFIANCE       CLOUDY    63  58  83 NW9       29.77R
FINDLAY        CLEAR     62  59  90 W8        29.73S
TOLEDO EXPRESS CLEAR     60  58  92 NW6       29.74S
TOLEDO METCALF CLEAR     63  57  81 NW10      29.74R
LIMA           MOCLDY    63  59  87 W13       29.77R

$$
&&


USA.gov is the U.S. government's official web portal to all federal, state and local government web resources and services.